Tracking 18942 objects as of 17-Jan-2018
HD Live streaming from Space Station
objects crossing your sky now

FENGYUN 1C DEB

Track FENGYUN 1C DEB now!
10-day predictions


NORAD ID: 30313
Int'l Code: 1999-025AAA
Perigee: 824.5 km
Apogee: 919.0 km
Inclination: 99.1 °
Period: 102.2 minutes
Semi major axis: 7242 km
RCS: 0.0812 m2 (small)
Launch date: May 10, 1999
Source: People's Republic of China (PRC)
Launch site: Taiyaun Space Center, China (TSC)

Note: This is SATELLITE DEBRIS
aabbcc
Your satellite tracking list
Your tracking list is empty




NASA's NSSDC Master Catalog

Two Line Element Set (TLE):
1 30313U 99025AAA 18016.72756330  .00000880  00000-0  52910-3 0  9990
2 30313  99.0978  58.5080 0065189 216.9539 263.5742 14.08472848563216
Source of the keplerian elements: AFSPC